Stations météo

réclame
Mon MeteoGroup
Brindisi, Italie (16320): Température de l'air & dewpoint: 10.08.2018 03:00:00 - 16.08.2018 03:00:00 (CEST)Brindisi, Italie (16320): Vitesse du vent: 10.08.2018 03:00:00 - 16.08.2018 03:00:00 (CEST)Brindisi, Italie (16320): Direction du vent: 10.08.2018 03:00:00 - 16.08.2018 03:00:00 (CEST)Brindisi, Italie (16320): reduced air pressure: 10.08.2018 03:00:00 - 16.08.2018 03:00:00 (CEST)Brindisi, Italie (16320): visibility: 10.08.2018 03:00:00 - 16.08.2018 03:00:00 (CEST)Brindisi, Italie (16320): Quantités de précipitations: 10.08.2018 03:00:00 - 16.08.2018 03:00:00 (CEST)
Date & Time tt [°C] td [°C] ff [km/h] ff [knt] dd ppp [hPa] vv [km] rr [mm]
16.08.2018 03:00:00 24,0 20,0 9 5 NNW - 10 -
16.08.2018 02:00:00 22,2 20,8 13 7 W 1011,8 10 -
16.08.2018 01:00:00 22,0 20,0 9 5 W - 10 -
16.08.2018 00:00:00 22,0 20,0 8 4 WNW - 10 -
15.08.2018 23:00:00 21,6 19,8 9 5 W 1012,1 10 0,0
15.08.2018 22:00:00 22,0 20,0 9 5 WSW - 10 -
15.08.2018 21:00:00 23,0 19,0 8 4 NW - 10 -
15.08.2018 20:00:00 23,2 18,6 9 5 NW 1011,5 10 -
15.08.2018 19:00:00 23,0 19,0 11 6 NNW - 10 -
15.08.2018 18:00:00 24,0 20,0 13 7 N - 10 -
15.08.2018 17:00:00 23,1 19,8 11 6 WNW 1010,9 10 0,0
15.08.2018 16:00:00 24,0 19,0 21 11 NW - 10 -
15.08.2018 15:00:00 27,0 22,0 18 10 SSW - 10 -
15.08.2018 14:00:00 28,2 21,3 15 8 N 1010,4 10 -
15.08.2018 13:00:00 28,0 22,0 15 8 NNW - 10 -
15.08.2018 12:00:00 28,0 21,0 11 6 W - 10 -
15.08.2018 11:00:00 26,9 21,4 11 6 NNW 1010,9 10 0,0
15.08.2018 10:00:00 27,0 22,0 11 6 NW - 10 -
15.08.2018 09:00:00 25,0 22,0 16 9 NW - 10 -
15.08.2018 08:00:00 26,0 22,1 13 7 NW 1010,3 10 -
15.08.2018 07:00:00 25,0 22,0 16 9 NW - 10 -
15.08.2018 06:00:00 25,0 21,0 15 8 NW - 10 -
15.08.2018 05:00:00 25,0 21,3 18 10 NW 1010,2 10 0,0
15.08.2018 04:00:00 25,0 21,0 18 10 NW - 10 -
15.08.2018 03:00:00 25,0 21,0 18 10 NW - 10 -
15.08.2018 02:00:00 25,2 21,1 18 10 NW 1010,7 10 -
15.08.2018 01:00:00 26,0 21,0 11 6 NW - 10 -
15.08.2018 00:00:00 27,0 19,0 29 16 N - 10 -
14.08.2018 23:00:00 25,7 21,6 29 16 WNW 1011,0 10 0,0
14.08.2018 22:00:00 28,0 18,0 13 7 WSW - 10 -
14.08.2018 21:00:00 29,0 18,0 9 5 S - 10 -
14.08.2018 20:00:00 28,7 22,5 13 7 SSE 1010,4 10 -
14.08.2018 19:00:00 30,0 20,0 13 7 ESE - 10 -
14.08.2018 18:00:00 31,0 20,0 13 7 E - 10 -
14.08.2018 17:00:00 31,0 18,4 13 7 SE 1010,2 10 0,0
14.08.2018 16:00:00 29,0 22,0 16 9 E - 10 -
14.08.2018 15:00:00 30,0 24,0 21 11 E - 10 -
14.08.2018 14:00:00 30,1 22,8 16 9 E 1011,2 10 -
14.08.2018 13:00:00 30,0 23,0 18 10 E - 10 -
14.08.2018 12:00:00 30,0 23,0 11 6 NE - 10 -
14.08.2018 11:00:00 29,4 20,5 2 1 - 1012,1 10 0,0
14.08.2018 10:00:00 27,0 21,0 9 5 WSW - 10 -
14.08.2018 09:00:00 26,0 24,0 11 6 SW - 10 -
14.08.2018 08:00:00 25,8 23,7 9 5 S 1012,1 8 -
14.08.2018 07:00:00 24,0 22,0 5 3 S - 10 -
14.08.2018 06:00:00 24,0 22,0 4 2 SSE - 10 -
14.08.2018 05:00:00 25,0 22,0 5 3 SSE - 10 -
14.08.2018 04:00:00 - - - - - - - -
14.08.2018 03:00:00 24,0 22,0 2 1 - - 10 -
14.08.2018 02:00:00 25,2 22,4 9 5 SSW 1011,7 10 -
14.08.2018 01:00:00 26,0 23,0 9 5 S - 10 -
14.08.2018 00:00:00 27,0 23,0 5 3 S - 10 -
13.08.2018 23:00:00 27,1 22,6 9 5 SSW 1012,2 10 0,0
13.08.2018 22:00:00 28,0 22,0 11 6 SSW - 10 -
13.08.2018 21:00:00 29,0 20,0 15 8 SSW - 10 -
13.08.2018 20:00:00 30,2 18,9 13 7 SSE 1011,4 10 -
13.08.2018 19:00:00 31,0 17,0 15 8 ESE - 10 -
13.08.2018 18:00:00 31,0 17,0 15 8 ESE - 10 -
13.08.2018 17:00:00 31,1 17,7 21 11 ESE 1012,1 10 0,0
13.08.2018 16:00:00 31,0 22,0 16 9 ESE - 10 -
13.08.2018 15:00:00 30,0 23,0 21 11 E - 10 -
13.08.2018 14:00:00 30,4 23,1 18 10 E 1013,6 10 -
13.08.2018 13:00:00 30,0 22,0 18 10 E - 10 -
13.08.2018 12:00:00 30,0 22,0 15 8 E - 10 -
13.08.2018 11:00:00 29,8 21,6 15 8 ENE 1014,7 10 0,0
13.08.2018 10:00:00 30,0 21,0 8 4 ENE - 10 -
13.08.2018 09:00:00 28,0 22,0 9 5 E - 10 -
13.08.2018 08:00:00 27,7 23,0 2 1 - 1014,1 10 -
13.08.2018 07:00:00 24,0 20,0 4 2 WSW - 10 -
13.08.2018 06:00:00 23,0 18,0 5 3 W - 10 -
13.08.2018 05:00:00 23,1 17,8 9 5 WSW 1013,8 10 0,0
13.08.2018 04:00:00 24,0 19,0 4 2 - - 10 -
13.08.2018 03:00:00 25,0 20,0 2 1 - - 10 -
13.08.2018 02:00:00 25,4 19,7 5 3 SSE 1014,6 10 -
13.08.2018 01:00:00 25,0 20,0 4 2 NNW - 10 -
13.08.2018 00:00:00 26,0 22,0 5 3 SW - 10 -
12.08.2018 23:00:00 26,4 22,4 5 3 SW 1014,9 10 0,0
12.08.2018 22:00:00 27,0 22,0 5 3 WSW - 10 -
12.08.2018 21:00:00 27,0 21,0 4 2 NNW - 10 -
12.08.2018 20:00:00 27,9 20,9 5 3 NNW 1014,5 10 -
12.08.2018 19:00:00 28,0 21,0 5 3 NE - 10 -
12.08.2018 18:00:00 29,0 22,0 5 3 NNE - 10 -
12.08.2018 17:00:00 28,6 23,2 11 6 NNE 1015,2 10 0,0
12.08.2018 16:00:00 30,0 23,0 13 7 N - 10 -
12.08.2018 15:00:00 29,0 23,0 13 7 N - 10 -
12.08.2018 14:00:00 29,3 23,0 13 7 N 1016,8 10 -
12.08.2018 13:00:00 30,0 23,0 15 8 N - 10 -
12.08.2018 12:00:00 29,0 23,0 16 9 N - 10 -
12.08.2018 11:00:00 29,3 23,9 16 9 N 1017,1 10 0,0
12.08.2018 10:00:00 29,0 24,0 16 9 N - 10 -
12.08.2018 09:00:00 28,0 24,0 13 7 N - 10 -
12.08.2018 08:00:00 27,7 23,6 13 7 N 1016,2 10 -
12.08.2018 07:00:00 27,0 23,0 13 7 N - 10 -
12.08.2018 06:00:00 27,0 23,0 16 9 NNW - 10 -
12.08.2018 05:00:00 26,9 23,4 13 7 NNW 1015,4 10 0,0
12.08.2018 04:00:00 27,0 22,0 11 6 NNW - 10 -
12.08.2018 03:00:00 27,0 23,0 16 9 NW - 10 -
12.08.2018 02:00:00 27,2 23,7 16 9 NW 1015,8 10 -
12.08.2018 01:00:00 26,0 23,0 13 7 WNW - 10 -
12.08.2018 00:00:00 27,0 23,0 9 5 NW - 10 -
11.08.2018 23:00:00 27,4 23,5 9 5 NW 1016,0 10 0,0
11.08.2018 22:00:00 28,0 24,0 9 5 NNW - 10 -
11.08.2018 21:00:00 28,0 23,0 13 7 NNW - 10 -
11.08.2018 20:00:00 28,0 23,3 13 7 NNW 1015,7 10 -
11.08.2018 19:00:00 29,0 23,0 18 10 NNW - 10 -
11.08.2018 18:00:00 29,0 24,0 18 10 NW - 10 -
11.08.2018 17:00:00 29,4 24,0 18 10 NW 1015,8 10 0,0
11.08.2018 16:00:00 30,0 24,0 16 9 N - 10 -
11.08.2018 15:00:00 30,0 24,0 21 11 N - 10 -
11.08.2018 14:00:00 29,8 24,1 18 10 NNW 1016,6 10 -
11.08.2018 13:00:00 29,0 24,0 21 11 N - 10 -
11.08.2018 12:00:00 29,0 24,0 18 10 NW - 10 -
11.08.2018 11:00:00 29,4 23,9 15 8 NW 1017,4 10 0,0
11.08.2018 10:00:00 28,0 25,0 18 10 NW - 10 -
11.08.2018 09:00:00 28,0 24,0 16 9 NNW - 10 -
11.08.2018 08:00:00 27,5 24,1 15 8 NW 1017,0 10 -
11.08.2018 07:00:00 - - - - - - - -
11.08.2018 06:00:00 27,0 23,0 15 8 NW - 10 -
11.08.2018 05:00:00 26,8 24,0 16 9 NW 1016,7 10 0,0
11.08.2018 04:00:00 26,0 23,0 11 6 WNW - 10 -
11.08.2018 03:00:00 26,0 23,0 13 7 WNW - 10 -
11.08.2018 02:00:00 27,3 23,3 11 6 NW 1017,4 10 -
11.08.2018 01:00:00 26,0 23,0 8 4 WNW - 10 -
11.08.2018 00:00:00 26,0 21,0 8 4 W - 10 -
10.08.2018 23:00:00 26,0 21,2 11 6 W 1017,9 10 0,0
10.08.2018 22:00:00 27,0 23,0 9 5 W - 10 -
10.08.2018 21:00:00 28,0 23,0 8 4 NW - 10 -
10.08.2018 20:00:00 28,1 22,1 11 6 NNW 1017,4 10 -
10.08.2018 19:00:00 29,0 22,0 15 8 NNW - 10 -
10.08.2018 18:00:00 30,0 22,0 13 7 N - 10 -
10.08.2018 17:00:00 29,5 22,1 16 9 N 1017,0 10 0,0
10.08.2018 16:00:00 30,0 23,0 16 9 N - 10 -
10.08.2018 15:00:00 30,0 24,0 18 10 N - 10 -
10.08.2018 14:00:00 29,5 24,2 18 10 N 1018,1 10 -
10.08.2018 13:00:00 29,0 24,0 21 11 N - 10 -
10.08.2018 12:00:00 30,0 24,0 15 8 NNW - 10 -
10.08.2018 11:00:00 29,0 23,4 11 6 N 1018,1 10 0,0
10.08.2018 10:00:00 29,0 23,0 9 5 N - 10 -
10.08.2018 09:00:00 28,0 24,0 9 5 NNE - 10 -
10.08.2018 08:00:00 26,9 21,8 9 5 WNW 1017,7 10 -
10.08.2018 07:00:00 24,0 21,0 8 4 W - 10 -
10.08.2018 06:00:00 24,0 20,0 4 2 W - 10 -
10.08.2018 05:00:00 24,0 20,2 4 2 WSW 1017,0 10 0,0
10.08.2018 04:00:00 24,0 21,0 5 3 SW - 10 -
10.08.2018 03:00:00 25,0 21,0 8 4 W - 10 -

tt = Température de l'air
td = dewpoint
ff = Vitesse du vent
dd = Direction du vent
ppp = reduced air pressure
vv = visibility
rr = Quantités de précipitations

stations d'obs. à proximité